Location: Franklinton
(36.1018°N, 78.4581°W)
Time: 20:29:16
(UTC-04:00)

OTV 5 (USA 277) - Pass Details

Date: 21 February 2019
Orbit: 315 x 320 km, 54.5° (Epoch: 14 March)

Event Time Altitude Azimuth Distance (km) Brightness Sun altitude
Rises 18:51:59 0° 186° (S) 2,042 ? -11.0°
Reaches altitude 10° 18:54:36 10° 158° (SSE) 1,218 ? -11.5°
Enters shadow 18:55:45 13° 133° (SE) 1,054 ? -11.8°
